sat.trackr.live / text

‹ back to catalog

STARLINK-33996

NORAD 63944 · 2025-098U

PAYLOAD ACTIVE UNKNOWN

§ Identity

Operator
Country
US
Launch date
2025-05-13
Launch site
AFWTR
Launch vehicle
Mass (kg)
RCS (m²)

Purposes: comms

External: N2YO · Heavens-Above · Gunter

§ Orbital elements

Epoch: 2026-09-19T01:49:35.224032Z

Period
94.14 min
Inclination
69.9989°
Eccentricity
0.0003660
Mean motion
15.29584046 rev/d
Perigee alt
474.5 km
Apogee alt
479.6 km
Semi-major
6,855.2 km
B*
3.5100e-4
RAAN
144.7178°
Arg perigee
278.6605°
Mean anomaly
81.4155°
Rev number
7,557

§ Raw data

STARLINK-339961 63944U 25098U   26262.07610213  .00009977  00000+0  35100-3 0  99912 63944  69.9989 144.7178 0003660 278.6605  81.4155 15.29584046 75571

JSON: /api/v1/satellites/63944 · /tle

For live sub-satellite position, see the globe view (requires WebGL).

§ Visibility from observer

Set your observer location to see the next 7 days of passes ≥ 10°. The values pass through the URL so the page stays shareable.

No JS? Fill the form by hand. The geolocation button needs JavaScript.